Griffiss International Airport
KRME : now visible

Airfield :











YOU CAN JOIN US ON...

 
LOGIN :

Register | Disclaimer

   EN    FR    IT 

 









Legend :    VFR   Marginal VFR   IFR   Intensive IFR   Very Intensive IFR
Visi :
Ceiling :
>= 8 km
>= 3000ft
5 to 8 km
1000 to 3000 ft
1500m to 5 km
500 to 1000 ft
800 to 1500m
200 to 500 ft
< 800m
< 200 ft
Symbols :   Thunderstorms  Fog  Heavy snow  Heavy precipitations  Wind > 20 kt






- Airport Elevation : 504 ft


KRME - Griffiss International

CURRENT METAR :
  • 241553Z 26005KT 10SM FEW034 BKN042 16/09 A3000 RMK AO2 SLP157 T01610089

EXPIRED METARs :
  • 241453Z 24009KT 200V270 10SM OVC037 16/08 A3001 RMK AO2 SLP160 T01610083 53004
  • 241353Z 18008KT 10SM CLR 16/09 A3000 RMK AO2 SLP156 T01560094

TAF KRME
Valid from the 24 at 12:00 until the 25 at 12:00 UTC


241131Z 2412/2512 12007KT P6SM FEW040
FM241600 22008KT P6SM FEW050
FM242200 VRB03KT P6SM SCT050
FM250800 00000KT 5SM BR SKC
FM251000 00000KT 2SM BR SKC
KZBW FIR / North America



MET'MAP, your aeronautical weather chart ! - Copyright ORBIFLY December 2007 - Disclaimer

ORBIFLY MET'MAP TEAM :

Programming & Development : Alexandra Zaïnal
Concept & original design : Baudouin d'Aumeries
Assistance for programming : Marc-Olivier Méhu
Technical & hardware support : Manuel Goepfert

Contact : metmap@orbifly.com




SOURCES & CREDITS :

   NOAA       Earth
Advisory